KD9BEW Weather Reports


time (UTC)temp
C
wind
direction
speed
KPH
gust
KPH
rain 1hr
cm
rain 24hr
cm
rain mn
cm
humidity
%
barometer
mb
20260507113055 2 236 1.6 8.0 0.00 0.00 0.00 69 1011.5
20260507111554 2 158 0.0 6.4 0.00 0.00 0.00 69 1011.5
20260507110056 2 159 0.0 3.2 0.00 0.00 0.00 68 1011.5
20260507104608 3 173 1.6 8.0 0.00 0.00 0.00 68 1011.4
20260507103102 3 210 0.0 4.8 0.00 0.00 0.00 68 1011.4
20260507101556 3 217 0.0 6.4 0.00 0.00 0.00 68 1011.5
20260507100054 2 0 0.0 3.2 0.00 0.00 0.00 68 1011.4
20260507094557 2 167 0.0 4.8 0.00 0.00 0.00 68 1011.5
20260507093100 2 143 0.0 3.2 0.00 0.00 0.00 68 1011.5
20260507091559 2 161 0.0 3.2 0.00 0.00 0.00 68 1011.5
20260507090056 3 0 1.6 6.4 0.00 0.00 0.00 67 1011.6
20260507084551 3 192 1.6 4.8 0.00 0.00 0.00 67 1011.6
20260507083056 3 140 0.0 4.8 0.00 0.00 0.00 67 1011.5
20260507081557 3 156 0.0 3.2 0.00 0.00 0.00 67 1011.7
20260507080054 3 164 1.6 4.8 0.00 0.00 0.00 67 1011.7
20260507074556 3 169 0.0 3.2 0.00 0.00 0.00 67 1011.8
20260507073057 3 167 0.0 4.8 0.00 0.00 0.00 67 1011.9
20260507071558 3 0 1.6 4.8 0.00 0.00 0.00 67 1011.9
20260507064557 3 0 0.0 1.6 0.00 0.00 0.00 67 1012.2
20260507063056 3 0 0.0 0.0 0.00 0.00 0.00 68 1012.2
20260507061603 3 0 0.0 1.6 0.00 0.00 0.00 67 1012.3
20260507060104 3 0 0.0 1.6 0.00 0.00 0.00 65 1012.5
20260507054602 3 0 0.0 4.8 0.00 0.00 0.00 65 1012.5
20260507053058 3 0 0.0 0.0 0.00 0.00 0.00 66 1012.7
20260507051552 3 0 0.0 1.6 0.00 0.00 0.00 65 1012.8
20260507050055 3 0 0.0 3.2 0.00 0.00 0.00 64 1013.0
20260507044600 3 0 0.0 6.4 0.00 0.00 0.00 63 1013.0
20260507043058 3 0 0.0 1.6 0.00 0.00 0.00 63 1013.0
20260507041552 3 205 0.0 3.2 0.00 0.00 0.00 62 1013.2
20260507040055 4 0 0.0 1.6 0.00 0.00 0.00 62 1013.2
20260507034608 4 0 0.0 4.8 0.00 0.00 0.00 61 1013.3
20260507033055 4 142 0.0 1.6 0.00 0.00 0.00 61 1013.4
20260507031553 4 0 0.0 0.0 0.00 0.00 0.00 61 1013.4
20260507024558 4 0 0.0 3.2 0.00 0.00 0.00 58 1013.5
20260507023055 5 0 0.0 3.2 0.00 0.00 0.00 58 1013.3
20260507021557 5 0 0.0 8.0 0.00 0.00 0.00 58 1013.3
20260507020055 5 0 0.0 1.6 0.00 0.00 0.00 57 1013.3
20260507014559 5 163 0.0 1.6 0.00 0.00 0.00 56 1013.1
20260507013100 5 0 0.0 3.2 0.00 0.00 0.00 55 1013.2
20260507011557 5 0 1.6 8.0 0.00 0.00 0.00 55 1013.2
20260507010057 5 173 0.0 4.8 0.00 0.00 0.00 54 1013.2
20260507004553 5 260 0.0 8.0 0.00 0.00 0.00 54 1013.1
20260507003054 5 178 1.6 9.7 0.00 0.00 0.00 53 1013.1
20260507001558 5 265 0.0 3.2 0.00 0.00 0.00 55 1013.1
20260507000057 5 281 3.2 11.3 0.00 0.00 0.00 53 1013.1
20260506234556 6 323 1.6 11.3 0.00 0.00 0.00 54 1013.2
20260506233102 6 288 1.6 12.9 0.00 0.00 0.00 54 1013.3
20260506231554 6 300 3.2 14.5 0.00 0.00 0.00 54 1013.3
20260506230057 6 275 4.8 12.9 0.00 0.00 0.00 54 1013.2
20260506224602 6 234 4.8 11.3 0.00 0.00 0.00 54 1013.2
20260506223055 6 0 3.2 16.1 0.00 0.00 0.00 54 1013.0
20260506221556 6 262 3.2 9.7 0.00 0.00 0.00 53 1013.1
20260506220057 6 260 3.2 11.3 0.00 0.00 0.00 53 1013.2
20260506214608 6 138 1.6 14.5 0.00 0.00 0.00 54 1013.1
20260506213054 6 259 4.8 14.5 0.00 0.00 0.00 54 1013.2
20260506211556 6 333 4.8 14.5 0.00 0.00 0.00 53 1013.2
20260506210055 6 289 0.0 6.4 0.00 0.00 0.00 53 1013.2
20260506204610 6 262 1.6 14.5 0.00 0.00 0.00 52 1013.3
20260506203055 6 240 1.6 12.9 0.00 0.00 0.00 54 1013.4
20260506201557 5 264 3.2 11.3 0.00 0.00 0.00 54 1013.4
20260506200055 5 296 3.2 12.9 0.00 0.00 0.00 54 1013.6
20260506194606 5 253 3.2 14.5 0.00 0.00 0.00 54 1013.6
20260506193058 5 322 1.6 12.9 0.00 0.00 0.00 53 1013.6
20260506191555 5 242 3.2 9.7 0.00 0.00 0.00 53 1013.6
20260506190056 5 246 3.2 24.1 0.00 0.00 0.00 53 1013.6
20260506184556 5 163 4.8 9.7 0.00 0.00 0.00 54 1013.7
20260506183106 5 321 4.8 11.3 0.00 0.00 0.00 53 1013.6
20260506181553 5 290 4.8 14.5 0.00 0.00 0.00 53 1013.6
20260506180058 5 191 3.2 14.5 0.00 0.00 0.00 53 1013.7
20260506174559 5 152 4.8 12.9 0.00 0.00 0.00 53 1013.7
20260506173057 5 287 3.2 11.3 0.00 0.00 0.00 54 1013.7
20260506171603 5 335 3.2 12.9 0.00 0.00 0.00 53 1013.7
20260506170107 5 267 3.2 14.5 0.00 0.00 0.00 53 1013.7
20260506164600 5 269 3.2 12.9 0.00 0.00 0.00 53 1013.8
20260506163105 5 152 6.4 12.9 0.00 0.00 0.00 55 1013.9
20260506161606 4 284 4.8 14.5 0.00 0.00 0.00 56 1014.0
20260506160055 4 15 3.2 11.3 0.00 0.00 0.00 55 1014.0
20260506154610 4 333 3.2 9.7 0.00 0.00 0.00 54 1014.1
20260506153053 4 290 1.6 11.3 0.00 0.00 0.00 54 1013.8
20260506151556 4 31 1.6 9.7 0.00 0.00 0.00 54 1013.8
20260506144605 4 260 3.2 12.9 0.00 0.00 0.00 55 1014.0
20260506143058 3 242 3.2 17.7 0.00 0.00 0.00 58 1014.0
20260506141603 3 207 4.8 14.5 0.00 0.00 0.00 61 1014.1
20260506140114 2 309 4.8 12.9 0.00 0.00 0.00 62 1014.0
20260506134558 2 273 3.2 9.7 0.00 0.00 0.00 64 1014.1
20260506133110 2 184 4.8 14.5 0.00 0.00 0.00 65 1014.0
20260506131601 2 280 0.0 6.4 0.00 0.00 0.00 65 1013.8
20260506130104 1 266 3.2 6.4 0.00 0.00 0.00 66 1013.9
20260506124558 1 261 0.0 9.7 0.00 0.00 0.00 68 1013.8
20260506123056 1 277 3.2 11.3 0.00 0.00 0.00 67 1013.7
20260506121555 1 0 0.0 9.7 0.00 0.00 0.00 68 1013.5
20260506120058 1 253 1.6 6.4 0.00 0.00 0.00 67 1013.3
20260506114600 0 207 0.0 9.7 0.00 0.00 0.00 67 1013.0